Hourly Data Report for October 04, 2014

All times are specified in Local Standard Time (LST). Add 1 hour to adjust for Daylight Saving Time where and when it is observed.

BATHURST A
NEW BRUNSWICK

47°37'47.000" N
65°44'20.000" W
58.80 m
8100505
71574
ZBF

Download Data

Hourly Data (October 2014)
Hourly Data Report for October 4, 2014
Temp Definition
°C
Dew Point Temp Definition
°C
Rel Hum Definition
%
Wind Dir Definition
10's deg

Wind Spd Definition
km/h
Visibility Definition
km
Stn Press Definition
kPa
Hmdx Definition


Wind Chill Definition


Weather Definition


TIME
00:00 Legend Double Dagger 6.3 5.7 96 36 2 19.3 101.05     LegendNANA
01:00 Legend Double Dagger 6.4 6.0 97 30 3 24.1 101.00     LegendNANA
02:00 Legend Double Dagger 6.4 6.0 97 36 3 19.3 100.91     Mostly Cloudy
03:00 Legend Double Dagger 7.0 6.4 96 36 2 19.3 100.89     LegendNANA
04:00 Legend Double Dagger 7.4 6.8 96   0 19.3 100.86     LegendNANA
05:00 Legend Double Dagger 7.8 7.1 95 0 1 19.3 100.85     Cloudy
06:00 Legend Double Dagger 8.2 7.3 94 34 4 16.1 100.84     Drizzle
07:00 Legend Double Dagger 8.4 7.7 95 34 4 16.1 100.83     LegendNANA
08:00 Legend Double Dagger 8.9 8.6 98 3 3 0.8 100.83     Drizzle,Fog
09:00 Legend Double Dagger 9.8 9.5 98 9 9 1.2 100.80     Drizzle,Fog
10:00 Legend Double Dagger 10.5 10.2 98 7 9 1.2 100.77     Drizzle,Fog
11:00 Legend Double Dagger 10.9 10.6 98 3 10 1.2 100.70     Drizzle,Fog
12:00 Legend Double Dagger 11.6 11.3 98 4 10 1.2 100.66     Drizzle,Fog
13:00 Legend Double Dagger 11.9 11.6 98 3 13 1.2 100.59     Drizzle,Fog
14:00 Legend Double Dagger 13.3 13.0 98 10 15 1.2 100.53     Drizzle,Fog
15:00 Legend Double Dagger 13.4 12.9 97 10 18 1.2 100.47     Rain,Fog
16:00 Legend Double Dagger 13.2 12.7 97 8 9 2.4 100.46     Rain,Fog
17:00 Legend Double Dagger 12.7 12.2 97 9 13 16.1 100.46     Rain
18:00 Legend Double Dagger 12.4 12.1 98 9 13 12.9 100.48     Rain
19:00 Legend Double Dagger 12.1 11.6 97 7 8 9.7 100.50     Rain,Fog
20:00 Legend Double Dagger 11.9 11.6 98 6 8 6.4 100.48     Rain,Fog
21:00 Legend Double Dagger 11.8 11.5 98 5 7 12.9 100.48     LegendNANA
22:00 Legend Double Dagger 11.8 11.5 98 4 9 4.8 100.42     Rain,Fog
23:00 Legend Double Dagger 12.0 11.9 99 5 7 1.2 100.38     Fog

Notes on Data Quality.

Legend

  • E = Estimated
  • M = Missing
  • NA = Not Available
  • ‡ = Partner data that is not subject to review by the National Climate Archives
Date modified: